Weather History for KPOU - December, 2013

Change the Weather History Date:

Monday, December 16, 2013

  Actual Average Record
Temperature  
Mean Temperature 19 °F 31 °F  
Max Temperature 32 °F 40 °F 59 °F (1971)
Min Temperature 6 °F 22 °F 3 °F (1961)
Degree Days  
Heating Degree Days 46 34  
Month to date heating degree days 539 502  
Since 1 July heating degree days 1782 1780  
Cooling Degree Days 0 0  
Month to date cooling degree days 0 0  
Year to date cooling degree days 829 672  
Moisture  
Dew Point 10 °F    
Average Humidity 54    
Maximum Humidity 76    
Minimum Humidity 39    
Precipitation  
Precipitation T in 0.11 in 0.94 in (2007)
Month to date precipitation 1.50 1.89  
Year to date precipitation 38.08 44.89  
Sea Level Pressure  
Sea Level Pressure 30.00 in    
Wind  
Wind Speed 11 mph (West)    
Max Wind Speed 18 mph    
Max Gust Speed 30 mph    
Visibility 9 miles    
Events Snow    
T = Trace of Precipitation, MM = Missing Value Source: NWS Daily Summary

Daily Weather History Graph

Daily Weather History Graph

Search for Another Location

Airport or City:

Trip Planner

Search our weather history database for the weather conditions in past years. The results will help you decide how hot, cold, wet, or windy it might be!

Date:

Astronomy

Dec. 16, 2013 Rise Set
Actual Time 7:16 AM EST 4:26 PM EST
Civil Twilight 6:44 AM EST 4:57 PM EST
Nautical Twilight 6:09 AM EST 5:32 PM EST
Astronomical Twilight 5:35 AM EST 6:06 PM EST
Moon 4:15 PM EST (12/16) 6:21 AM EST (12/16)
Length of Visible Light 10h 13m
Length of Day
9h 10m
Full, 100% of the Moon is Illuminated
Dec 16
Full
Dec 17
Full
Dec 25
Last Quarter
Jan 1
New
Jan 7
First Quarter

Hourly Weather History & Observations

Time (EST) Temp. Windchill Dew Point Humidity Pressure Visibility Wind Dir Wind Speed Gust Speed Precip Events Conditions
12:53 AM 32.0 °F 24.8 °F 19.0 °F 59% 29.78 in 10.0 mi SW 8.1 mph - N/A   Mostly Cloudy
1:53 AM 32.0 °F 23.0 °F 18.0 °F 56% 29.81 in 10.0 mi West 11.5 mph - N/A   Mostly Cloudy
1:59 AM 30.2 °F 18.5 °F 19.4 °F 64% 29.83 in 2.5 mi WNW 17.3 mph 26.5 mph 0.00 in Snow Light Snow
2:03 AM 28.4 °F 16.2 °F 21.2 °F 74% 29.83 in 0.8 mi WNW 17.3 mph 26.5 mph 0.00 in Snow Light Snow
2:15 AM 28.4 °F 17.5 °F 19.4 °F 69% 29.83 in 2.0 mi West 13.8 mph 29.9 mph 0.00 in Snow Light Snow
2:23 AM 30.2 °F 20.8 °F 17.6 °F 60% 29.84 in 9.0 mi West 11.5 mph 21.9 mph 0.00 in   Overcast
2:32 AM 30.2 °F 20.8 °F 15.8 °F 55% 29.84 in 10.0 mi West 11.5 mph 23.0 mph 0.00 in   Mostly Cloudy
2:53 AM 30.0 °F 17.9 °F 12.0 °F 47% 29.84 in 10.0 mi West 18.4 mph 24.2 mph 0.00 in   Clear
3:53 AM 28.9 °F 16.9 °F 10.0 °F 45% 29.87 in 10.0 mi West 17.3 mph 25.3 mph N/A   Partly Cloudy
4:53 AM 27.0 °F 18.0 °F 12.9 °F 56% 29.90 in 10.0 mi West 9.2 mph - N/A   Scattered Clouds
5:53 AM 26.1 °F 17.6 °F 10.0 °F 51% 29.94 in 10.0 mi West 8.1 mph - N/A   Clear
6:53 AM 24.1 °F 13.1 °F 8.1 °F 51% 29.97 in 10.0 mi West 11.5 mph - N/A   Clear
7:53 AM 24.1 °F 13.1 °F 7.0 °F 48% 30.00 in 10.0 mi West 11.5 mph - N/A   Clear
8:53 AM 24.1 °F 12.5 °F 7.0 °F 48% 30.03 in 10.0 mi West 12.7 mph 18.4 mph N/A   Clear
9:53 AM 26.1 °F 16.2 °F 7.0 °F 44% 30.06 in 10.0 mi West 10.4 mph 20.7 mph N/A   Clear
10:53 AM 27.0 °F 16.7 °F 7.0 °F 43% 30.05 in 10.0 mi West 11.5 mph 19.6 mph N/A   Clear
11:53 AM 27.0 °F 15.6 °F 7.0 °F 43% 30.04 in 10.0 mi West 13.8 mph 21.9 mph N/A   Clear
12:53 PM 28.0 °F 16.1 °F 7.0 °F 41% 30.04 in 10.0 mi WNW 16.1 mph 21.9 mph N/A   Clear
1:53 PM 28.0 °F 17.5 °F 6.1 °F 39% 30.04 in 10.0 mi WNW 12.7 mph - N/A   Clear
2:53 PM 27.0 °F 15.2 °F 8.1 °F 45% 30.06 in 9.0 mi West 15.0 mph 23.0 mph N/A   Scattered Clouds
3:53 PM 27.0 °F 16.1 °F 6.1 °F 41% 30.09 in 10.0 mi West 12.7 mph - N/A   Clear
4:53 PM 25.0 °F 16.3 °F 6.1 °F 45% 30.11 in 10.0 mi West 8.1 mph - N/A   Clear
5:53 PM 24.1 °F 18.2 °F 6.1 °F 46% 30.14 in 10.0 mi WSW 4.6 mph - N/A   Clear
6:53 PM 21.0 °F - 6.1 °F 53% 30.17 in 10.0 mi Calm Calm - N/A   Clear
7:53 PM 16.0 °F - 7.0 °F 68% 30.19 in 10.0 mi Calm Calm - N/A   Clear
8:53 PM 12.9 °F - 3.9 °F 67% 30.21 in 9.0 mi Calm Calm - N/A   Clear
9:53 PM 12.0 °F - 5.0 °F 73% 30.20 in 9.0 mi Calm Calm - N/A   Clear
10:53 PM 10.0 °F - 3.0 °F 73% 30.21 in 8.0 mi Calm Calm - N/A   Clear
11:53 PM 8.1 °F - 1.9 °F 76% 30.22 in 9.0 mi Calm Calm - N/A   Clear